Flag for Russia Weather past 2 weeks in Nizhny Novgorod, Russia

Now
12 °F

Sunny.


Feels Like: 6 °F
Forecast: 17 / 28 °F
Wind: 3 mph from Northwest

Location: Nizhny Novgorod/Strigino

Current Time: Oct 25, 2014 at 10:35:32 AM

Latest Report: Oct 25, 2014 at 10:00 AM


Visibility: 6 mi

Pressure: 30.60 "Hg

Humidity: 85%

Dew point: 9 °F

Location of Nizhny NovgorodLocation

Historic Weather in Nizhny Novgorod — Graph

°F

Nizhny Novgorod temperature yesterday

Maximum temperature yesterday: 21 °F (at 1:00 PM)
Minimum temperature yesterday: 14 °F (at 10:30 PM)
Average temperature yesterday: 18 °F

Past Weeks' High & Low Weather Summary

 TemperatureHumidityPressure
High61 °F (Oct 11, 2:00 PM)100% (Oct 12, 12:00 AM)30.60 "Hg (Oct 12, 12:00 AM)
Low3 °F (Oct 25, 3:00 AM)51% (Oct 12, 4:00 PM)29.36 "Hg (Oct 21, 5:30 PM)
Average34 °F84%29.89 "Hg
* Reported Oct 10 9:00 AM — Oct 25 9:30 AM, Nizhny Novgorod, Weather by CustomWeather, © 2014

Note: Actual official high and low records may vary slightly from our data, if they occured in-between our weather recording intervals... More about our weather records

Advertising

Nizhny Novgorod weather history for previous 24 hours

 ConditionsComfort  
Time TempWeatherWind HumidityBarometerVisibility
9:30 AM
Oct 25
10 °FSunny.1 mph92%30.60 "Hg6 mi
9:00 AM10 °FPassing clouds.No wind85%30.60 "Hg6 mi
8:30 AM7 °FPassing clouds.No wind85%30.60 "Hg6 mi
8:00 AM5 °FPassing clouds.1 mph85%30.57 "Hg6 mi
7:30 AM7 °FPassing clouds.No wind92%30.57 "Hg6 mi
7:00 AM9 °FPassing clouds.3 mph85%30.57 "Hg6 mi
6:30 AM7 °FPassing clouds.No wind85%30.57 "Hg6 mi
6:00 AM9 °FPassing clouds.No wind85%30.57 "Hg6 mi
5:30 AM9 °FPassing clouds.No wind92%30.57 "Hg6 mi
5:00 AM7 °FPassing clouds.1 mph85%30.57 "Hg6 mi
4:30 AM5 °FPassing clouds.No wind85%30.57 "Hg6 mi
4:00 AM5 °FPassing clouds.No wind85%30.57 "Hg6 mi
3:30 AM5 °FClear.1 mph85%30.54 "Hg10 mi
3:00 AM3 °FClear.1 mph92%30.54 "Hg10 mi
2:30 AM5 °FClear.No wind85%30.54 "Hg10 mi
2:00 AM7 °FClear.1 mph92%30.54 "Hg10 mi
1:30 AM9 °FClear.1 mph85%30.54 "Hg10 mi
1:00 AM10 °FClear.3 mph85%30.54 "Hg10 mi
12:30 AM12 °FClear.3 mph79%30.54 "Hg10 mi
12:00 AM12 °FClear.3 mph79%30.51 "Hg10 mi
11:30 PM
Oct 24
14 °FClear.3 mph73%30.51 "Hg10 mi
11:00 PM14 °FClear.8 mph79%30.51 "Hg10 mi
10:30 PM14 °FClear.8 mph79%30.51 "Hg10 mi
10:00 PM16 °FClear.8 mph73%30.51 "Hg10 mi
9:30 PM16 °FClear.8 mph73%30.51 "Hg10 mi
9:00 PM16 °FClear.8 mph73%30.51 "Hg10 mi
8:30 PM16 °FClear.8 mph73%30.51 "Hg10 mi
8:00 PM16 °FClear.6 mph73%30.51 "Hg10 mi
7:30 PM16 °FClear.6 mph73%30.51 "Hg10 mi
7:00 PM18 °FClear.8 mph68%30.48 "Hg10 mi
6:30 PM18 °FSunny.8 mph68%30.48 "Hg10 mi
6:00 PM18 °FScattered clouds.8 mph68%30.48 "HgN/A
5:30 PM18 °FScattered clouds.6 mph73%30.48 "HgN/A
5:00 PM19 °FScattered clouds.8 mph68%30.48 "HgN/A
4:30 PM19 °FScattered clouds.13 mph68%30.45 "HgN/A
4:00 PM21 °FScattered clouds.10 mph68%30.45 "HgN/A
3:30 PM21 °FScattered clouds.10 mph68%30.45 "HgN/A
3:00 PM21 °FScattered clouds.13 mph68%30.42 "HgN/A
2:30 PM21 °FScattered clouds.10 mph68%30.42 "HgN/A
2:00 PM21 °FSunny.10 mph68%30.42 "Hg10 mi
1:30 PM21 °FSunny.10 mph63%30.42 "Hg10 mi
1:00 PM21 °FPassing clouds.10 mph63%30.42 "HgN/A
12:30 PM19 °FSunny.10 mph63%30.39 "Hg10 mi
12:00 PM19 °FScattered clouds.10 mph63%30.39 "HgN/A
11:30 AM18 °FScattered clouds.10 mph68%30.39 "HgN/A
11:00 AM18 °FScattered clouds.10 mph68%30.39 "HgN/A
10:30 AM18 °FScattered clouds.13 mph68%30.39 "HgN/A
10:00 AM18 °FSunny.10 mph68%30.36 "Hg10 mi
Weather by CustomWeather, © 2014

See weather overviewHow to use our weather pages